Hourly Weather Koziny

Today, 20 October, Tuesday

Time Temperature Precipitation Wind Pressure Humidity
00:00 +4°C° 0 mm 1 mps 722 mmHg 88%
01:00 +4°C° 0 mm 1 mps 722 mmHg 89%
02:00 +4°C° 0 mm 1 mps 722 mmHg 88%
03:00 +4°C° 0 mm 1 mps 721 mmHg 87%
04:00 +4°C° 0 mm 1 mps 721 mmHg 86%
05:00 +4°C° 0 mm 1 mps 721 mmHg 86%
06:00 +4°C° 0 mm 1 mps 721 mmHg 86%
07:00 +3°C° 0 mm 2 mps 721 mmHg 85%
08:00 +5°C° 0 mm 2 mps 722 mmHg 79%
09:00 +7°C° 0 mm 2 mps 722 mmHg 73%
10:00 +9°C° 0 mm 2 mps 722 mmHg 66%
11:00 +10°C° 0 mm 2 mps 722 mmHg 63%
12:00 +12°C° 0 mm 2 mps 722 mmHg 61%
13:00 +13°C° 0 mm 2 mps 721 mmHg 58%
14:00 +12°C° 0 mm 2 mps 721 mmHg 63%
15:00 +10°C° 0 mm 2 mps 720 mmHg 68%
16:00 +9°C° 0 mm 2 mps 720 mmHg 74%
17:00 +8°C° 0 mm 2 mps 720 mmHg 78%
18:00 +6°C° 0 mm 2 mps 720 mmHg 82%
19:00 +5°C° 0 mm 2 mps 719 mmHg 86%
20:00 +5°C° 0 mm 2 mps 719 mmHg 86%
21:00 +5°C° 0 mm 2 mps 719 mmHg 86%
22:00 +4°C° 0 mm 2 mps 719 mmHg 87%
23:00 +4°C° 0 mm 2 mps 719 mmHg 86%

Tomorrow, 21 October, Wednesday

Time Temperature Precipitation Wind Pressure Humidity
00:00 +5°C° 0 mm 2 mps 719 mmHg 85%
01:00 +5°C° 0 mm 2 mps 718 mmHg 84%
02:00 +4°C° 0 mm 2 mps 718 mmHg 84%
03:00 +4°C° 0 mm 2 mps 718 mmHg 84%
04:00 +4°C° 0 mm 2 mps 718 mmHg 84%
05:00 +5°C° 0 mm 2 mps 718 mmHg 82%
06:00 +5°C° 0 mm 2 mps 718 mmHg 80%
07:00 +5°C° 0 mm 2 mps 718 mmHg 78%
08:00 +7°C° 0 mm 2 mps 718 mmHg 73%
09:00 +9°C° 0 mm 2 mps 718 mmHg 67%
10:00 +12°C° 0 mm 2 mps 718 mmHg 61%
11:00 +13°C° 0 mm 2 mps 718 mmHg 60%
12:00 +14°C° 0 mm 2 mps 718 mmHg 59%
13:00 +14°C° 0 mm 3 mps 718 mmHg 57%
14:00 +14°C° 0 mm 2 mps 717 mmHg 64%
15:00 +13°C° 0 mm 2 mps 717 mmHg 70%
16:00 +12°C° 0 mm 2 mps 717 mmHg 76%
17:00 +10°C° 0 mm 2 mps 717 mmHg 80%
18:00 +9°C° 0 mm 2 mps 717 mmHg 84%
19:00 +7°C° 0 mm 2 mps 717 mmHg 88%
20:00 +7°C° 0 mm 2 mps 717 mmHg 87%
21:00 +7°C° 0 mm 3 mps 717 mmHg 87%
22:00 +7°C° 0 mm 3 mps 717 mmHg 87%
23:00 +7°C° 0 mm 2 mps 717 mmHg 87%

Day after tomorrow, 22 October, Thursday

Time Temperature Precipitation Wind Pressure Humidity
00:00 +7°C° 0 mm 2 mps 717 mmHg 88%
01:00 +7°C° 0 mm 2 mps 718 mmHg 88%
02:00 +7°C° 0 mm 2 mps 718 mmHg 89%
03:00 +7°C° 0 mm 2 mps 718 mmHg 89%
04:00 +7°C° 0 mm 2 mps 718 mmHg 89%
05:00 +7°C° 0 mm 2 mps 718 mmHg 88%
06:00 +7°C° 0 mm 2 mps 718 mmHg 88%
07:00 +9°C° 0 mm 1 mps 718 mmHg 87%
08:00 +11°C° 0 mm 1 mps 719 mmHg 80%
09:00 +13°C° 0 mm 1 mps 719 mmHg 73%
10:00 +16°C° 0 mm 1 mps 719 mmHg 65%
11:00 +18°C° 0 mm 1 mps 719 mmHg 63%
12:00 +19°C° 0 mm 1 mps 719 mmHg 62%
13:00 +19°C° 0 mm 1 mps 719 mmHg 60%
14:00 +18°C° 0 mm 1 mps 719 mmHg 66%
15:00 +16°C° 0 mm 1 mps 718 mmHg 73%
16:00 +14°C° 0 mm 1 mps 718 mmHg 79%
17:00 +13°C° 0 mm 1 mps 718 mmHg 83%
18:00 +12°C° 0 mm 1 mps 718 mmHg 86%
19:00 +11°C° 0 mm 1 mps 717 mmHg 89%
20:00 +11°C° 0 mm 1 mps 717 mmHg 89%
21:00 +10°C° 0 mm 1 mps 717 mmHg 90%
22:00 +10°C° 0 mm 1 mps 717 mmHg 90%
23:00 +10°C° 0 mm 1 mps 717 mmHg 89%

23 October, Friday

Time Temperature Precipitation Wind Pressure Humidity
00:00 +10°C° 0 mm 1 mps 716 mmHg 89%
01:00 +9°C° 0 mm 1 mps 716 mmHg 89%
02:00 +9°C° 0 mm 1 mps 716 mmHg 88%
03:00 +9°C° 0 mm 1 mps 715 mmHg 88%
04:00 +9°C° 0 mm 1 mps 715 mmHg 87%
05:00 +9°C° 0 mm 1 mps 715 mmHg 87%
06:00 +9°C° 0 mm 1 mps 715 mmHg 87%
07:00 +9°C° 0 mm 1 mps 715 mmHg 87%
08:00 +9°C° 0 mm 2 mps 715 mmHg 82%
09:00 +12°C° 0 mm 2 mps 715 mmHg 77%
10:00 +14°C° 0 mm 2 mps 715 mmHg 72%
11:00 +14°C° 0 mm 2 mps 715 mmHg 71%
12:00 +15°C° 0 mm 2 mps 715 mmHg 69%
13:00 +16°C° 0 mm 1 mps 715 mmHg 67%
14:00 +15°C° 0 mm 1 mps 714 mmHg 72%
15:00 +14°C° 0 mm 1 mps 714 mmHg 77%
16:00 +13°C° 0 mm 1 mps 714 mmHg 82%
17:00 +12°C° 0 mm 1 mps 714 mmHg 84%
18:00 +12°C° 0 mm 1 mps 714 mmHg 87%
19:00 +11°C° 0 mm 1 mps 714 mmHg 89%
20:00 +10°C° 0 mm 1 mps 713 mmHg 90%
21:00 +10°C° 0 mm 1 mps 713 mmHg 90%
22:00 +10°C° 0 mm 1 mps 713 mmHg 90%
23:00 +10°C° 0 mm 1 mps 713 mmHg 90%

24 October, Saturday

Time Temperature Precipitation Wind Pressure Humidity
00:00 +10°C° 0 mm 1 mps 713 mmHg 90%
01:00 +10°C° 0 mm 1 mps 713 mmHg 90%
02:00 +10°C° 0 mm 1 mps 712 mmHg 90%
03:00 +10°C° 0 mm 1 mps 712 mmHg 90%
04:00 +10°C° 0 mm 1 mps 712 mmHg 91%
05:00 +10°C° 0.4 mm 1 mps 712 mmHg 92%
06:00 +9°C° 0.4 mm 2 mps 712 mmHg 93%
07:00 +9°C° 0.4 mm 2 mps 712 mmHg 94%
08:00 +9°C° 0.6 mm 2 mps 713 mmHg 93%
09:00 +10°C° 0.6 mm 2 mps 713 mmHg 93%
10:00 +10°C° 0.6 mm 3 mps 713 mmHg 93%
11:00 +11°C° 0.2 mm 3 mps 714 mmHg 90%
12:00 +11°C° 0.2 mm 4 mps 714 mmHg 87%
13:00 +12°C° 0.2 mm 4 mps 714 mmHg 84%
14:00 +11°C° 0.4 mm 4 mps 714 mmHg 84%
15:00 +10°C° 0.4 mm 4 mps 714 mmHg 84%
16:00 +10°C° 0.4 mm 4 mps 714 mmHg 85%
17:00 +9°C° 0.2 mm 3 mps 715 mmHg 86%
18:00 +8°C° 0.2 mm 3 mps 715 mmHg 87%
19:00 +7°C° 0.2 mm 2 mps 716 mmHg 88%
20:00 +7°C° 0 mm 2 mps 716 mmHg 89%
21:00 +6°C° 0 mm 2 mps 716 mmHg 89%
22:00 +6°C° 0 mm 2 mps 717 mmHg 90%
23:00 +6°C° 0 mm 2 mps 717 mmHg 90%

25 October, Sunday

Time Temperature Precipitation Wind Pressure Humidity
00:00 +6°C° 0 mm 2 mps 717 mmHg 90%
01:00 +6°C° 0 mm 2 mps 717 mmHg 90%
02:00 +6°C° 0 mm 2 mps 717 mmHg 90%
03:00 +7°C° 0 mm 1 mps 717 mmHg 91%
04:00 +7°C° 0 mm 1 mps 717 mmHg 92%
05:00 +7°C° 0 mm 1 mps 718 mmHg 91%
06:00 +7°C° 0 mm 1 mps 718 mmHg 91%
07:00 +7°C° 0 mm 1 mps 718 mmHg 91%
08:00 +8°C° 0 mm 1 mps 718 mmHg 88%
09:00 +9°C° 0 mm 1 mps 719 mmHg 86%
10:00 +9°C° 0 mm 1 mps 719 mmHg 83%
11:00 +10°C° 0 mm 1 mps 719 mmHg 79%
12:00 +10°C° 0 mm 0 mps 719 mmHg 75%
13:00 +11°C° 0 mm 0 mps 719 mmHg 71%
14:00 +10°C° 0 mm 0 mps 718 mmHg 75%
15:00 +10°C° 0 mm 1 mps 718 mmHg 79%
16:00 +9°C° 0 mm 1 mps 717 mmHg 83%
17:00 +9°C° 0 mm 1 mps 717 mmHg 85%
18:00 +8°C° 0 mm 1 mps 717 mmHg 88%
19:00 +7°C° 0 mm 1 mps 717 mmHg 91%
20:00 +6°C° 0 mm 1 mps 717 mmHg 91%
21:00 +6°C° 0 mm 1 mps 718 mmHg 91%
22:00 +6°C° 0 mm 1 mps 718 mmHg 92%
23:00 +6°C° 0 mm 1 mps 717 mmHg 91%
Show more